Weather History for KBNA - January, 2014

Change the Weather History Date:

Sunday, January 5, 2014

  Actual Average Record
Temperature  
Mean Temperature 39 °F 38 °F  
Max Temperature 58 °F 47 °F 70 °F (1955)
Min Temperature 20 °F 29 °F -10 °F (1884)
Degree Days  
Heating Degree Days 26    
Month to date heating degree days 162  
Since 1 July heating degree days 1630  
Cooling Degree Days 0    
Month to date cooling degree days 0  
Year to date cooling degree days 0  
Moisture  
Dew Point 34 °F    
Average Humidity 75    
Maximum Humidity 89    
Minimum Humidity 61    
Precipitation  
Precipitation 0.35 in 0.12 in 2.25 in (1950)
Month to date precipitation 0.61 0.58  
Year to date precipitation 0.61 0.58  
Snow  
Snow 0.20 in 0.10 in 7.30 in (1960)
Month to date snowfall 0.2 0.3  
Since 1 July snowfall 1.1 0.8  
Snow Depth 0.00 in    
Sea Level Pressure  
Sea Level Pressure 29.84 in    
Wind  
Wind Speed 17 mph (SW)    
Max Wind Speed 32 mph    
Max Gust Speed 43 mph    
Visibility 7 miles    
Events Fog , Rain , Snow    
T = Trace of Precipitation, MM = Missing Value Source: NWS Daily Summary

Daily Weather History Graph

Daily Weather History Graph

Search for Another Location

Airport or City:

Trip Planner

Search our weather history database for the weather conditions in past years. The results will help you decide how hot, cold, wet, or windy it might be!

Date:

Astronomy

Jan. 05, 2014 Rise Set
Actual Time 6:58 AM CST 4:46 PM CST
Civil Twilight 6:29 AM CST 5:14 PM CST
Nautical Twilight 5:57 AM CST 5:46 PM CST
Astronomical Twilight 5:26 AM CST 6:17 PM CST
Moon 9:48 AM CST (1/5) 10:03 PM CST (1/5)
Length of Visible Light 10h 45m
Length of Day
9h 48m
Waxing Crescent, 25% of the Moon is Illuminated
Jan 5
Waxing Crescent
Jan 7
First Quarter
Jan 15
Full
Jan 23
Last Quarter
Jan 30
New

Hourly Weather History & Observations

Time (CST) Temp. Windchill Dew Point Humidity Pressure Visibility Wind Dir Wind Speed Gust Speed Precip Events Conditions
12:53 AM 32.0 °F 25.6 °F 26.1 °F 79% 30.09 in 10.0 mi South 6.9 mph - N/A   Partly Cloudy
1:53 AM 34.0 °F 26.6 °F 28.9 °F 82% 30.07 in 10.0 mi South 9.2 mph - N/A   Partly Cloudy
2:53 AM 37.0 °F 27.7 °F 30.9 °F 79% 30.04 in 10.0 mi South 16.1 mph - N/A   Mostly Cloudy
3:53 AM 37.9 °F 30.0 °F 32.0 °F 79% 30.02 in 10.0 mi South 12.7 mph 23.0 mph N/A   Overcast
4:53 AM 37.9 °F 29.2 °F 32.0 °F 79% 30.00 in 10.0 mi South 15.0 mph - N/A   Clear
5:53 AM 39.0 °F 30.6 °F 33.1 °F 79% 29.96 in 10.0 mi South 15.0 mph - N/A   Mostly Cloudy
6:53 AM 41.0 °F 32.8 °F 34.0 °F 76% 29.96 in 10.0 mi South 16.1 mph 24.2 mph N/A   Mostly Cloudy
7:53 AM 43.0 °F 35.4 °F 35.1 °F 74% 29.93 in 10.0 mi SSE 16.1 mph 23.0 mph N/A   Overcast
8:53 AM 46.0 °F 39.9 °F 37.0 °F 71% 29.92 in 10.0 mi South 13.8 mph 24.2 mph N/A   Mostly Cloudy
9:53 AM 51.1 °F - 39.9 °F 66% 29.86 in 10.0 mi South 25.3 mph 33.4 mph N/A   Mostly Cloudy
10:53 AM 53.1 °F - 41.0 °F 64% 29.82 in 10.0 mi South 26.5 mph 36.8 mph N/A   Overcast
11:53 AM 55.0 °F - 43.0 °F 64% 29.75 in 10.0 mi South 21.9 mph 29.9 mph N/A   Mostly Cloudy
12:53 PM 57.0 °F - 44.1 °F 62% 29.70 in 10.0 mi South 23.0 mph 29.9 mph N/A   Mostly Cloudy
1:44 PM 57.2 °F - 44.6 °F 63% 29.66 in 10.0 mi South 23.0 mph 39.1 mph N/A   Mostly Cloudy
1:51 PM 57.2 °F - 44.6 °F 63% 29.65 in 10.0 mi South 23.0 mph 36.8 mph N/A   Overcast
1:53 PM 57.0 °F - 44.1 °F 62% 29.65 in 10.0 mi South 28.8 mph 38.0 mph N/A   Overcast
2:46 PM 53.6 °F - 46.4 °F 77% 29.65 in 2.0 mi SSW 27.6 mph 41.4 mph 0.01 in Rain Light Rain
2:53 PM 53.1 °F - 46.9 °F 80% 29.65 in 3.0 mi SSW 18.4 mph 41.4 mph 0.02 in Rain Light Rain
3:47 PM 51.8 °F - 48.2 °F 88% 29.65 in 8.0 mi South 12.7 mph 23.0 mph 0.08 in Rain Light Rain
3:53 PM 52.0 °F - 48.0 °F 86% 29.65 in 9.0 mi South 17.3 mph 23.0 mph 0.08 in Rain Light Rain
4:53 PM 52.0 °F - 48.9 °F 89% 29.65 in 6.0 mi SSW 12.7 mph - 0.06 in Rain Light Rain
5:05 PM 51.8 °F - 48.2 °F 88% 29.65 in 8.0 mi SSW 11.5 mph 20.7 mph 0.01 in Rain Light Rain
5:47 PM 46.4 °F 39.2 °F 44.6 °F 93% 29.70 in 4.0 mi WNW 18.4 mph 34.5 mph 0.05 in Rain Light Rain
5:50 PM 46.4 °F 39.8 °F 42.8 °F 87% 29.70 in 4.0 mi WNW 16.1 mph 26.5 mph 0.06 in Rain Light Rain
5:53 PM 44.1 °F 36.5 °F 41.0 °F 89% 29.70 in 3.0 mi WNW 17.3 mph 26.5 mph 0.06 in Rain Light Rain
6:00 PM 42.8 °F 35.1 °F 39.2 °F 87% 29.71 in 5.0 mi WNW 16.1 mph 27.6 mph 0.00 in Rain Light Rain
6:19 PM 37.4 °F 27.2 °F 35.6 °F 93% 29.75 in 4.0 mi WNW 19.6 mph 26.5 mph 0.01 in Rain Light Rain
6:42 PM 35.6 °F 26.2 °F 32.0 °F 87% 29.79 in 5.0 mi WNW 15.0 mph 24.2 mph 0.05 in Rain Light Ice Pellets
6:49 PM 33.8 °F 24.8 °F 30.2 °F 87% 29.81 in 2.0 mi WNW 12.7 mph 24.2 mph 0.07 in Snow Light Snow
6:53 PM 33.1 °F 25.5 °F 30.9 °F 92% 29.82 in 1.8 mi WNW 9.2 mph 20.7 mph 0.07 in Snow Light Snow
6:59 PM 33.8 °F 22.5 °F 30.2 °F 87% 29.81 in 0.5 mi WNW 19.6 mph 27.6 mph 0.02 in Fog , Snow Snow
7:12 PM 32.0 °F 20.5 °F 28.4 °F 87% 29.82 in 1.0 mi WNW 18.4 mph 29.9 mph 0.04 in Snow Light Snow
7:22 PM 30.2 °F 17.4 °F 28.4 °F 93% 29.83 in 0.5 mi WNW 20.7 mph 28.8 mph 0.05 in Fog , Snow Snow
7:31 PM 30.2 °F 18.9 °F 26.6 °F 86% 29.85 in 2.0 mi WNW 16.1 mph 31.1 mph 0.06 in Snow Light Snow
7:44 PM 28.4 °F 15.8 °F 24.8 °F 86% 29.86 in 4.0 mi WNW 18.4 mph 28.8 mph 0.06 in Snow Light Snow
7:53 PM 28.9 °F 15.8 °F 25.0 °F 85% 29.88 in 9.0 mi NW 20.7 mph 32.2 mph 0.06 in Snow Light Snow
8:53 PM 26.1 °F 14.5 °F 21.0 °F 81% 29.96 in 10.0 mi WNW 13.8 mph 26.5 mph 0.00 in   Overcast
9:53 PM 23.0 °F 6.9 °F 17.1 °F 78% 30.03 in 9.0 mi NW 24.2 mph 35.7 mph 0.00 in Snow Light Snow
9:56 PM 23.0 °F 8.3 °F 15.8 °F 74% 30.02 in 9.0 mi WNW 19.6 mph 35.7 mph 0.00 in Snow Light Snow
10:53 PM 21.9 °F 6.5 °F 15.1 °F 75% 30.07 in 7.0 mi NW 20.7 mph 28.8 mph 0.00 in Snow Light Snow
11:53 PM 19.9 °F 4.8 °F 12.0 °F 71% 30.10 in 9.0 mi NW 18.4 mph 28.8 mph 0.00 in Snow Light Snow